Terminal Aerodrome Forecast
Issued by NWS

Home | Current Version | Previous Version | Text Only | Print | Product List | Glossary On
Versions: 1 2 3 4 5 6 7 8 9 10 11 12 13 14 15 16 17 18 19 20 21 22 23 24 25 26 27 28 29 30 31 32 33 34 35 36 37 38 39 40 41 42 43 44 45 46 47 48 49 50
000
FTUS44 KHGX 190520
TAFCXO
TAF
KCXO 190520Z 1906/2006 00000KT P6SM FEW004 BKN015
      TEMPO 1906/1910 2SM BR BKN002
     FM191000 00000KT 5SM BR SCT004 BKN012
     FM191400 09006KT P6SM VCSH SCT015 SCT035 BKN120
     FM192200 12005KT P6SM SCT025 BKN250=

USA.gov is the U.S. government's official web portal to all federal, state and local government web resources and services.